FW3877 Weather Reports


time (UTC)temp
C
wind
direction
speed
KPH
gust
KPH
rain 1hr
cm
rain 24hr
cm
rain mn
cm
humidity
%
barometer
mb
20260901105204 16 248 9.7 14.5 0.00 0.48 0.36 96 1014.3
20260901104204 16 276 8.0 19.3 0.00 0.48 0.36 96 1014.5
20260901103204 16 237 11.3 20.9 0.03 0.48 0.36 96 1014.4
20260901102203 16 252 4.8 16.1 0.03 0.48 0.36 96 1014.5
20260901101703 15 227 9.7 16.1 0.03 0.48 0.36 96 1014.5
20260901101204 15 254 11.3 19.3 0.03 0.48 0.36 96 1014.4
20260901100704 15 248 12.9 22.5 0.03 0.48 0.36 96 1014.6
20260901100205 15 287 14.5 22.5 0.03 0.48 0.36 96 1014.5
20260901095704 15 249 9.7 16.1 0.03 0.48 0.36 96 1014.6
20260901095204 15 253 11.3 22.5 0.05 0.48 0.36 96 1014.5
20260901094204 15 237 12.9 20.9 0.05 0.48 0.36 96 1014.4
20260901093703 15 271 16.1 25.7 0.05 0.46 0.33 96 1014.3
20260901093204 15 241 14.5 25.7 0.05 0.46 0.33 96 1014.4
20260901092704 15 256 11.3 22.5 0.05 0.46 0.33 96 1014.3
20260901092204 15 269 9.7 22.5 0.05 0.46 0.33 96 1014.3
20260901091704 15 260 12.9 22.5 0.05 0.46 0.33 96 1014.3
20260901090204 15 233 11.3 19.3 0.05 0.46 0.33 96 1014.3
20260901085703 15 247 12.9 25.7 0.05 0.46 0.33 96 1014.3
20260901084703 15 252 11.3 20.9 0.00 0.43 0.30 96 1014.2
20260901083704 15 250 12.9 20.9 0.00 0.43 0.30 96 1014.0
20260901083204 15 220 9.7 16.1 0.00 0.43 0.30 96 1014.0
20260901082704 15 238 12.9 19.3 0.00 0.43 0.30 96 1014.1
20260901082204 15 238 11.3 19.3 0.00 0.43 0.30 96 1013.9
20260901081704 15 228 9.7 19.3 0.00 0.43 0.30 96 1013.9
20260901081203 15 261 9.7 19.3 0.00 0.43 0.30 96 1013.9
20260901080704 15 232 11.3 19.3 0.00 0.43 0.30 96 1013.9
20260901080204 15 252 9.7 22.5 0.00 0.43 0.30 96 1013.9
20260901075704 15 260 11.3 19.3 0.00 0.43 0.30 96 1013.9
20260901075204 15 233 14.5 19.3 0.00 0.43 0.30 96 1013.9
20260901074704 15 239 11.3 22.5 0.03 0.43 0.30 96 1013.8
20260901074204 15 239 8.0 19.3 0.03 0.43 0.30 96 1013.9
20260901073704 15 216 11.3 19.3 0.05 0.43 0.30 96 1013.8
20260901073204 15 233 9.7 20.9 0.05 0.43 0.30 96 1013.9
20260901072703 14 217 8.0 11.3 0.05 0.43 0.30 96 1013.7
20260901072204 14 227 6.4 14.5 0.05 0.43 0.30 96 1013.7
20260901071704 14 230 3.2 11.3 0.08 0.43 0.30 96 1013.8
20260901071204 14 215 8.0 11.3 0.08 0.43 0.30 96 1013.9
20260901070703 14 212 4.8 8.0 0.08 0.43 0.30 95 1013.9
20260901070204 14 251 3.2 8.0 0.13 0.43 0.30 95 1014.0
20260901065204 14 234 6.4 11.3 0.25 0.43 0.30 95 1014.1
20260901064704 14 255 6.4 12.9 0.23 0.43 0.28 95 1014.2
20260901064203 14 251 6.4 12.9 0.25 0.43 0.28 95 1014.1
20260901063705 14 248 8.0 14.5 0.23 0.41 0.25 95 1014.1
20260901063204 14 232 9.7 19.3 0.23 0.41 0.25 95 1014.2
20260901062203 14 260 6.4 16.1 0.23 0.38 0.23 95 1014.1
20260901061704 14 255 9.7 19.3 0.20 0.36 0.23 95 1014.2
20260901061204 14 248 6.4 12.9 0.20 0.36 0.23 95 1014.1
20260901060703 14 248 8.0 14.5 0.20 0.36 0.23 94 1014.0
20260901055703 14 262 8.0 19.3 0.08 0.23 0.10 94 1014.1
20260901054704 15 235 8.0 19.3 0.03 0.18 0.05 94 1014.0
20260901054204 15 242 11.3 19.3 0.00 0.15 0.03 94 1013.9
20260901053203 15 234 12.9 24.1 0.00 0.18 0.03 94 1013.8
20260901052704 14 225 12.9 19.3 0.00 0.18 0.03 94 1013.8
20260901052204 15 204 11.3 22.5 0.00 0.18 0.03 94 1013.8
20260901051704 14 257 11.3 16.1 0.00 0.18 0.03 94 1013.8
20260901051203 14 237 9.7 19.3 0.00 0.18 0.03 94 1013.8
20260901050704 14 243 12.9 19.3 0.00 0.18 0.03 94 1013.8
20260901050203 14 248 9.7 20.9 0.00 0.18 0.03 94 1013.8
20260901045203 14 230 11.3 19.3 0.00 0.18 0.03 94 1013.8
20260901044703 14 251 9.7 19.3 0.00 0.18 0.03 94 1013.8
20260901044204 14 242 11.3 20.9 0.00 0.18 0.03 94 1013.7
20260901043703 14 254 14.5 20.9 0.00 0.18 0.03 94 1013.7
20260901043204 14 238 11.3 22.5 0.00 0.18 0.03 94 1013.7
20260901042704 14 244 9.7 19.3 0.00 0.18 0.03 94 1013.7
20260901042203 14 242 12.9 22.5 0.00 0.18 0.03 94 1013.7
20260901041704 14 252 9.7 19.3 0.03 0.18 0.03 94 1013.7
20260901041204 14 257 9.7 19.3 0.03 0.18 0.03 94 1013.8
20260901040204 13 255 9.7 16.1 0.03 0.18 0.03 94 1013.8
20260901035704 14 226 9.7 19.3 0.03 0.18 0.03 94 1013.9
20260901035203 14 221 9.7 12.9 0.03 0.18 0.03 94 1014.0
20260901034703 14 234 8.0 12.9 0.03 0.18 0.03 94 1014.0
20260901034204 14 226 9.7 16.1 0.03 0.18 0.03 94 1013.9
20260901033704 14 247 9.7 14.5 0.03 0.18 0.03 94 1013.8
20260901032704 13 234 11.3 19.3 0.03 0.18 0.03 94 1013.8
20260901032204 13 255 9.7 19.3 0.03 0.18 0.03 94 1013.8
20260901031703 13 241 8.0 12.9 0.00 0.15 0.00 94 1013.7
20260901031203 13 240 8.0 14.5 0.00 0.15 0.00 93 1013.8
20260901030203 14 220 9.7 16.1 0.00 0.15 0.00 93 1013.7
20260901025704 14 256 9.7 19.3 0.00 0.15 0.00 93 1013.8
20260901025204 14 239 9.7 19.3 0.00 0.15 0.00 93 1013.8
20260901024704 14 220 12.9 19.3 0.00 0.15 0.00 93 1013.8
20260901024203 14 231 11.3 22.5 0.00 0.15 0.00 93 1013.8
20260901023704 14 235 11.3 24.1 0.00 0.15 0.00 93 1013.8
20260901023204 14 245 14.5 22.5 0.00 0.15 0.00 93 1013.8
20260901022704 14 243 9.7 20.9 0.00 0.15 0.00 93 1013.8
20260901022204 14 241 14.5 27.4 0.00 0.15 0.00 93 1013.9
20260901021703 14 245 11.3 27.4 0.00 0.15 0.00 93 1013.9
20260901021204 14 237 12.9 24.1 0.00 0.15 0.00 93 1013.9
20260901020704 14 232 11.3 20.9 0.00 0.15 0.00 94 1013.9
20260901015703 14 221 11.3 19.3 0.00 0.15 0.00 93 1013.9
20260901015204 14 269 11.3 22.5 0.00 0.15 0.00 94 1014.0
20260901014704 14 236 8.0 19.3 0.00 0.15 0.00 94 1014.1
20260901014203 14 217 9.7 19.3 0.00 0.15 0.00 94 1014.2
20260901013703 14 230 9.7 16.1 0.00 0.15 0.00 94 1014.2
20260901012704 14 223 8.0 19.3 0.00 0.15 0.00 94 1014.3
20260901012204 14 228 9.7 19.3 0.00 0.15 0.00 94 1014.3
20260901011704 14 221 9.7 20.9 0.00 0.15 0.00 94 1014.3
20260901011204 13 233 11.3 19.3 0.00 0.15 0.00 94 1014.4
20260901010704 13 240 9.7 19.3 0.00 0.15 0.00 94 1014.4
20260901005704 13 258 9.7 19.3 0.00 0.15 0.00 94 1014.4
20260901005203 13 266 9.7 19.3 0.00 0.15 0.00 94 1014.4
20260901004704 13 231 8.0 16.1 0.00 0.15 0.00 94 1014.4
20260901004204 13 229 8.0 14.5 0.00 0.15 0.00 94 1014.4
20260901003704 13 238 8.0 19.3 0.00 0.15 0.00 94 1014.4
20260901002704 13 226 8.0 14.5 0.00 0.15 0.00 94 1014.5
20260901001704 13 234 8.0 14.5 0.00 0.15 0.00 94 1014.6
20260901001204 13 239 8.0 12.9 0.00 0.15 0.00 94 1014.5
20260901000704 13 234 9.7 16.1 0.00 0.15 0.00 94 1014.6
20260901000204 13 225 8.0 14.5 0.00 0.15 0.00 94 1014.7
20260831235703 13 223 8.0 16.1 0.00 0.15 0.00 94 1014.6
20260831234704 13 241 4.8 9.7 0.00 0.15 0.00 94 1014.8
20260831234204 13 236 8.0 14.5 0.00 0.15 0.00 94 1014.9
20260831232704 13 227 9.7 14.5 0.00 0.15 0.00 94 1015.1
20260831232204 13 229 8.0 16.1 0.00 0.15 0.00 94 1015.1
20260831231704 13 219 8.0 12.9 0.00 0.15 0.00 94 1015.0
20260831231203 13 231 8.0 16.1 0.00 0.15 0.00 94 1015.1
20260831230704 13 236 9.7 14.5 0.00 0.15 0.00 94 1015.2
20260831230204 13 235 8.0 12.9 0.00 0.15 0.00 94 1015.2
20260831225704 13 243 8.0 14.5 0.00 0.15 0.15 94 1015.2
20260831225205 13 242 3.2 8.0 0.00 0.15 0.15 94 1015.3
20260831224704 13 230 4.8 11.3 0.00 0.15 0.15 94 1015.2
20260831224204 13 230 8.0 12.9 0.00 0.18 0.15 94 1015.3
20260831223704 13 220 6.4 12.9 0.03 0.20 0.15 94 1015.3
20260831222703 13 212 8.0 12.9 0.03 0.23 0.15 94 1015.2
20260831222204 13 227 8.0 19.3 0.03 0.36 0.15 94 1015.3
20260831221703 13 217 8.0 16.1 0.03 0.36 0.15 94 1015.1
20260831221204 13 221 8.0 19.3 0.03 0.36 0.15 94 1015.2
20260831220704 13 223 8.0 16.1 0.03 0.36 0.15 94 1015.3
20260831220204 13 250 9.7 16.1 0.03 0.36 0.15 94 1015.3
20260831215704 13 216 8.0 14.5 0.03 0.36 0.15 94 1015.4
20260831215203 13 218 11.3 19.3 0.03 0.36 0.15 94 1015.3
20260831214704 13 226 11.3 22.5 0.03 0.36 0.15 94 1015.3
20260831214204 13 229 12.9 19.3 0.03 0.36 0.15 94 1015.3
20260831213703 13 231 8.0 11.3 0.00 0.33 0.15 94 1015.3
20260831213204 13 219 9.7 12.9 0.00 0.33 0.15 93 1015.4
20260831212704 13 207 4.8 9.7 0.00 0.33 0.15 94 1015.3
20260831212204 13 209 4.8 9.7 0.00 0.33 0.15 94 1015.4
20260831211704 13 226 8.0 12.9 0.00 0.33 0.15 94 1015.4
20260831210704 13 225 6.4 12.9 0.00 0.33 0.15 93 1015.5
20260831205704 13 220 8.0 16.1 0.00 0.33 0.15 93 1015.4
20260831205204 13 221 8.0 12.9 0.00 0.33 0.15 93 1015.4
20260831204704 13 210 8.0 12.9 0.00 0.33 0.15 93 1015.5
20260831203704 13 247 8.0 11.3 0.00 0.33 0.15 93 1015.4
20260831203204 13 232 8.0 16.1 0.00 0.33 0.15 93 1015.5
20260831201703 13 217 8.0 14.5 0.00 0.33 0.15 93 1015.4
20260831201204 13 248 6.4 9.7 0.00 0.33 0.15 93 1015.4
20260831200704 13 222 8.0 12.9 0.00 0.33 0.15 93 1015.4
20260831200204 13 226 6.4 12.9 0.00 0.33 0.15 93 1015.6
20260831195704 13 215 4.8 14.5 0.00 0.33 0.15 93 1015.4
20260831195204 13 223 8.0 14.5 0.00 0.33 0.15 93 1015.5
20260831194704 13 225 8.0 12.9 0.00 0.33 0.15 93 1015.4
20260831194204 13 225 8.0 14.5 0.00 0.33 0.15 93 1015.4
20260831193704 13 220 9.7 16.1 0.00 0.33 0.15 93 1015.4
20260831193204 13 215 9.7 16.1 0.00 0.33 0.15 93 1015.4
20260831192704 13 244 8.0 12.9 0.00 0.33 0.15 93 1015.3
20260831192204 13 193 6.4 9.7 0.00 0.33 0.15 93 1015.3
20260831191703 13 231 8.0 9.7 0.00 0.33 0.15 93 1015.2
20260831191204 13 210 8.0 11.3 0.03 0.33 0.15 93 1015.2
20260831190705 13 207 6.4 9.7 0.05 0.33 0.15 93 1015.1
20260831190203 13 208 8.0 11.3 0.05 0.36 0.15 93 1015.1
20260831185704 13 213 4.8 11.3 0.05 0.36 0.15 93 1015.0
20260831185204 13 217 8.0 14.5 0.05 0.36 0.15 93 1015.1
20260831184705 13 216 6.4 11.3 0.05 0.36 0.15 93 1015.1
20260831184204 13 225 9.7 14.5 0.05 0.38 0.15 93 1015.1
20260831183704 13 216 9.7 19.3 0.05 0.48 0.15 93 1015.1
20260831183204 13 233 11.3 22.5 0.05 0.48 0.15 93 1015.1
20260831182704 13 227 9.7 19.3 0.05 0.48 0.15 93 1015.1
20260831182203 13 226 9.7 19.3 0.05 0.48 0.15 92 1015.2
20260831181704 14 233 9.7 16.1 0.05 0.48 0.15 92 1015.2
20260831181203 14 242 9.7 19.3 0.05 0.46 0.13 92 1015.2
20260831180203 14 229 8.0 14.5 0.00 0.43 0.08 92 1015.1
20260831175703 14 228 6.4 12.9 0.00 0.43 0.08 92 1015.1
20260831175204 14 238 8.0 19.3 0.00 0.43 0.08 92 1015.2
20260831174704 14 232 6.4 16.1 0.00 0.43 0.08 92 1015.0
20260831174204 14 229 8.0 12.9 0.00 0.43 0.08 92 1015.1
20260831173204 13 177 9.7 14.5 0.00 0.43 0.08 92 1015.0
20260831172204 13 193 4.8 12.9 0.00 0.43 0.08 92 1015.0
20260831171703 13 181 8.0 14.5 0.00 0.43 0.08 92 1015.1
20260831171203 13 189 6.4 9.7 0.00 0.43 0.08 92 1015.2
20260831170204 13 222 8.0 14.5 0.00 0.43 0.08 92 1015.1
20260831165704 13 218 8.0 12.9 0.03 0.43 0.08 92 1015.2
20260831165204 13 225 8.0 12.9 0.03 0.43 0.08 92 1015.2
20260831164204 13 210 9.7 14.5 0.03 0.43 0.08 91 1015.3
20260831163703 13 238 4.8 12.9 0.03 0.43 0.08 91 1015.2
20260831163203 13 227 8.0 12.9 0.03 0.43 0.08 91 1015.3
20260831162704 13 236 6.4 14.5 0.03 0.43 0.08 91 1015.2
20260831162205 13 243 6.4 16.1 0.03 0.43 0.08 90 1015.3
20260831161705 13 236 9.7 20.9 0.03 0.43 0.08 90 1015.2
20260831161204 13 244 12.9 27.4 0.03 0.43 0.08 89 1015.4
20260831160203 14 255 9.7 22.5 0.05 0.43 0.08 88 1015.2
20260831155703 14 244 16.1 24.1 0.03 0.43 0.05 87 1015.3
20260831155204 15 226 11.3 22.5 0.03 0.43 0.05 87 1015.0
20260831154705 15 233 9.7 19.3 0.03 0.43 0.05 89 1014.9
20260831154204 15 227 9.7 19.3 0.03 0.43 0.05 89 1014.9
20260831153705 15 238 8.0 14.5 0.03 0.43 0.05 89 1015.0
20260831153204 14 239 9.7 14.5 0.03 0.48 0.05 89 1015.0
20260831152704 14 223 8.0 12.9 0.03 0.51 0.05 89 1015.1
20260831152203 14 237 8.0 14.5 0.03 0.61 0.05 88 1015.1
20260831151204 13 248 8.0 16.1 0.03 0.79 0.05 86 1015.1
20260831150704 14 258 9.7 19.3 0.03 0.81 0.05 85 1015.2
20260831145704 15 240 9.7 16.1 0.00 1.80 0.05 82 1015.1
20260831145204 15 222 11.3 19.3 0.00 1.93 0.05 80 1015.0
20260831144704 15 217 9.7 14.5 0.00 1.93 0.05 80 1014.9
20260831144204 15 268 8.0 14.5 0.00 1.93 0.05 79 1015.0
20260831143704 15 252 8.0 16.1 0.00 1.93 0.05 79 1014.9
20260831142704 15 265 9.7 19.3 0.00 1.93 0.05 79 1014.9
20260831142203 15 247 11.3 19.3 0.00 1.93 0.05 78 1014.8
20260831141704 15 243 11.3 19.3 0.00 1.93 0.05 78 1014.8
20260831141204 15 264 11.3 19.3 0.00 1.93 0.05 79 1014.9
20260831140203 16 245 6.4 19.3 0.00 1.93 0.05 79 1014.8
20260831135704 15 252 9.7 19.3 0.00 1.93 0.05 79 1014.8
20260831135204 15 267 8.0 19.3 0.00 1.93 0.05 79 1014.7
20260831134704 15 275 9.7 16.1 0.00 1.93 0.05 79 1014.6
20260831134204 15 251 11.3 19.3 0.00 1.93 0.05 78 1014.6
20260831133703 15 265 9.7 24.1 0.00 1.93 0.05 78 1014.6
20260831133204 15 256 8.0 19.3 0.00 1.93 0.05 79 1014.6
20260831132705 15 264 8.0 16.1 0.00 1.93 0.05 79 1014.5
20260831132204 15 266 11.3 19.3 0.00 1.93 0.05 79 1014.4
20260831131705 15 259 11.3 20.9 0.00 1.93 0.05 79 1014.5
20260831131205 15 249 11.3 20.9 0.00 1.93 0.05 79 1014.4
20260831130704 15 254 9.7 16.1 0.00 1.93 0.05 79 1014.4
20260831130203 15 251 12.9 19.3 0.00 1.93 0.05 78 1014.4
20260831125204 16 262 9.7 19.3 0.00 1.98 0.05 77 1014.3
20260831124703 16 269 9.7 19.3 0.00 1.98 0.05 77 1014.3
20260831124204 16 261 9.7 19.3 0.00 1.98 0.05 77 1014.2
20260831123704 16 267 11.3 19.3 0.00 1.98 0.05 77 1014.2
20260831123204 16 245 8.0 16.1 0.00 1.98 0.05 78 1014.3
20260831121704 16 276 9.7 19.3 0.00 1.98 0.05 79 1014.2
20260831121204 16 297 8.0 20.9 0.00 1.98 0.05 81 1014.1
20260831115704 15 251 14.5 20.9 0.00 1.98 0.05 80 1014.3
20260831114705 15 257 9.7 16.1 0.00 1.98 0.05 81 1014.2
20260831113704 15 273 9.7 19.3 0.00 1.98 0.05 81 1014.1
20260831113204 15 260 9.7 19.3 0.00 1.98 0.05 81 1014.0
20260831112704 15 266 9.7 19.3 0.00 1.98 0.05 81 1014.0
20260831112203 15 270 9.7 22.5 0.00 1.98 0.05 82 1014.0
20260831111704 15 275 6.4 20.9 0.00 1.98 0.05 82 1013.9
20260831111204 15 279 9.7 16.1 0.00 1.98 0.05 83 1013.9
20260831110704 14 278 8.0 19.3 0.00 1.98 0.05 82 1013.9